Location: Unspecified
(35.7250°N, 0.0000°E)
Time: 17:08:48
(UTC+00:00)

Tiros 1 - Pass Details

Date: 28 June 2019
Orbit: 630 x 664 km, 48.4° (Epoch: 21 July)

Event Time Altitude Azimuth Distance (km) Brightness Sun altitude
Rises 03:42:41 0° 302° (WNW) 2,928 10.3 -11.4°
Reaches altitude 10° 03:45:03 10° 298° (WNW) 2,013 9.5 -11.1°
Maximum altitude 03:49:33 54° 222° (SW) 765 7.2 -10.3°
Drops below altitude 10° 03:54:02 10° 145° (SE) 1,996 9.6 -9.6°
Sets 03:56:23 0° 141° (SE) 2,900 10.5 -9.3°
